McAlester, OK

10:09 PM CST on November 17, 2019 (GMT -0600)
McAlester Regional

Weather History for KMLC - August, 2019

Change the Weather History Date:

Monday, August 12, 2019

  Actual Average Record
Temperature  
Mean Temperature 86 °F -  
Max Temperature 100 °F 91 °F 105 °F (1956)
Min Temperature 73 °F 70 °F 53 °F (1967)
Cooling Degree Days 22    
Growing Degree Days 36 (Base 50)    
Moisture  
Dew Point 71 °F    
Average Humidity 59    
Maximum Humidity 85    
Minimum Humidity 40    
Precipitation  
Precipitation 0.00 in - - ()
Sea Level Pressure  
Sea Level Pressure 29.86 in    
Wind  
Wind Speed 6 mph (South)    
Max Wind Speed 20 mph    
Max Gust Speed 20 mph    
Visibility 10 miles    
Events      
Averages and records for this station are not official NWS values.
T = Trace of Precipitation, MM = Missing Value Source: NWS Daily Summary

Daily Weather History Graph

Daily Weather History Graph

Search for Another Location

Airport or City:

Astronomy

Aug. 12, 2019 Rise Set
Actual Time 6:40 AM CDT 8:14 PM CDT
Civil Twilight 6:13 AM CDT 8:41 PM CDT
Nautical Twilight 5:41 AM CDT 9:14 PM CDT
Astronomical Twilight 5:07 AM CDT 9:48 PM CDT
Moon 6:40 PM CDT (8/12) 3:56 AM CDT (8/12)
Length of Visible Light 14h 27m
Length of Day
13h 33m
Waxing Gibbous, 93% of the Moon is Illuminated
Aug 12
Waxing Gibbous
Aug 15
Full
Aug 23
Last Quarter
Aug 30
New
Sep 5
First Quarter

Hourly Weather History & Observations

Time (CDT) Temp. Heat Index Dew Point Humidity Pressure Visibility Wind Dir Wind Speed Gust Speed Precip Events Conditions
12:53 AM 81.0 °F 84.1 °F 69.1 °F 67% 29.89 in 10.0 mi SSW 4.6 mph - N/A   Clear
1:53 AM 80.1 °F 82.7 °F 68.0 °F 67% 29.89 in 10.0 mi SSE 3.5 mph - N/A   Clear
2:53 AM 77.0 °F - 68.0 °F 74% 29.87 in 10.0 mi Calm Calm - N/A   Clear
3:53 AM 73.9 °F - 69.1 °F 85% 29.86 in 10.0 mi Calm Calm - N/A   Scattered Clouds
4:53 AM 75.0 °F - 69.1 °F 82% 29.86 in 10.0 mi South 3.5 mph - N/A   Clear
5:53 AM 78.1 °F - 69.1 °F 74% 29.87 in 10.0 mi SSW 4.6 mph - N/A   Partly Cloudy
6:53 AM 78.1 °F - 69.1 °F 74% 29.87 in 10.0 mi South 3.5 mph - N/A   Clear
7:53 AM 80.1 °F 83.6 °F 71.1 °F 74% 29.88 in 10.0 mi SSW 5.8 mph - N/A   Clear
8:53 AM 84.0 °F 89.6 °F 72.0 °F 67% 29.89 in 10.0 mi South 6.9 mph - N/A   Clear
9:53 AM 88.0 °F 96.5 °F 73.9 °F 63% 29.89 in 10.0 mi South 9.2 mph - N/A   Clear
10:53 AM 91.0 °F 100.4 °F 73.9 °F 57% 29.89 in 10.0 mi South 9.2 mph 16.1 mph N/A   Clear
11:53 AM 95.0 °F 104.5 °F 73.0 °F 49% 29.89 in 10.0 mi South 10.4 mph 18.4 mph N/A   Clear
12:53 PM 97.0 °F 105.5 °F 72.0 °F 44% 29.88 in 10.0 mi SW 19.6 mph - N/A   Clear
1:53 PM 99.0 °F 107.0 °F 71.1 °F 40% 29.87 in 10.0 mi SSW 11.5 mph - N/A   Clear
2:53 PM 100.0 °F 111.0 °F 73.0 °F 42% 29.84 in 10.0 mi SSW 11.5 mph 17.3 mph N/A   Clear
3:53 PM 100.0 °F 111.0 °F 73.0 °F 42% 29.82 in 10.0 mi SSW 9.2 mph 19.6 mph N/A   Partly Cloudy
4:53 PM 100.0 °F 109.3 °F 72.0 °F 40% 29.81 in 10.0 mi South 8.1 mph - N/A   Clear
5:53 PM 99.0 °F 107.0 °F 71.1 °F 40% 29.80 in 10.0 mi South 6.9 mph - N/A   Clear
6:53 PM 97.0 °F 103.5 °F 70.0 °F 41% 29.79 in 10.0 mi South 5.8 mph - N/A   Clear
7:53 PM 91.9 °F 99.5 °F 72.0 °F 52% 29.80 in 10.0 mi South 5.8 mph - N/A   Clear
8:53 PM 89.1 °F 94.1 °F 70.0 °F 53% 29.81 in 10.0 mi South 4.6 mph - N/A   Clear
9:53 PM 87.1 °F 92.8 °F 71.1 °F 59% 29.84 in 10.0 mi SSE 4.6 mph - N/A   Clear
10:53 PM 84.9 °F 89.4 °F 70.0 °F 61% 29.86 in 10.0 mi South 3.5 mph - N/A   Clear
11:53 PM 81.0 °F 84.4 °F 70.0 °F 69% 29.86 in 10.0 mi South 3.5 mph - N/A   Clear